GFSSE_prec_cloud_114.txt.gz
Cloud_Cover
0 0 0 0 0 0 0 0 0 0 0 0 0 0 0 0 0 0 0 0 0 0 0 0 0 0 0 0 0 0 0 0 0 0 0 44 46 68 95 31 59 17 34
0 0 6 0 0 0 0 0 0 0 0 0 0 0 0 0 0 0 0 0 0 0 0 0 0 0 0 0 0 0 0 0 0 0 0 0 11 24 6 39 86 5 70
0 0 0 0 0 0 0 0 0 0 0 0 0 0 0 0 0 0 0 0 0 0 0 0 0 0 0 0 0 0 0 0 0 0 0 16 72 27 86 5 3 17 41
0 0 0 0 0 0 0 0 0 0 0 0 0 0 0 0 0 0 0 0 0 0 0 6 12 0 0 0 0 0 0 0 0 0 1 79 80 5 5 5 5 5 30
0 0 0 0 0 0 0 0 0 0 0 0 0 0 0 0 0 0 0 0 0 4 10 4 4 3 0 4 0 0 0 0 0 0 0 28 12 4 5 5 1 5 5
0 0 43 0 0 0 0 0 0 0 0 0 0 0 0 0 0 0 0 0 0 5 5 5 5 5 4 1 5 5 0 0 0 15 4 99 100 100 92 5 5 5 5
0 0 0 0 0 0 0 0 0 0 0 0 0 0 0 0 0 0 0 0 0 0 0 4 10 5 4 5 5 5 1 0 3 0 68 100 100 100 100 14 5 5 5
1 0 0 4 2 0 0 0 0 0 0 0 0 0 0 0 0 0 0 0 0 0 2 1 0 0 0 0 1 5 5 9 0 0 86 100 100 100 100 18 4 5 5
5 5 1 6 26 0 0 0 0 0 0 0 0 0 0 0 0 0 0 0 0 0 0 5 4 0 0 0 0 2 0 1 0 0 29 100 100 100 97 5 4 9 5
34 5 4 100 86 0 0 3 0 0 0 0 0 0 0 6 0 0 0 0 0 0 0 0 2 5 5 3 0 0 0 3 0 0 0 18 100 100 100 5 53 5 27
99 16 0 32 100 17 0 2 14 0 2 8 2 4 79 0 0 0 0 0 5 0 0 0 0 0 0 0 0 0 11 0 2 4 0 98 90 100 27 100 100 90 100
100 100 65 97 100 100 5 26 27 86 0 5 0 5 0 0 0 0 0 0 3 0 0 0 2 0 36 0 7 59 6 4 0 0 5 3 76 100 72 100 100 97 100
100 99 100 70 100 100 100 100 100 100 0 5 0 0 0 1 4 0 0 0 0 3 5 23 38 0 0 0 0 0 0 1 0 52 21 100 100 100 46 77 100 100 99
100 100 100 100 100 98 94 95 100 100 34 79 0 0 0 0 0 4 27 0 0 0 0 1 2 0 0 0 0 1 0 19 12 62 46 100 100 100 100 65 100 75 100
99 35 99 100 100 100 100 100 52 89 100 100 4 2 4 5 4 2 3 4 0 0 0 4 1 57 36 41 89 4 0 15 38 38 36 44 12 42 95 31 71 100 100
37 31 100 100 100 100 100 100 100 100 100 100 70 60 35 8 5 5 5 5 5 5 3 1 0 35 68 54 93 88 0 12 100 83 98 73 100 100 98 21 74 95 100
88 100 31 100 99 64 100 100 100 100 100 100 100 100 100 98 42 34 5 9 5 30 5 5 1 100 49 0 0 0 8 80 6 5 98 100 100 96 79 65 5 43 100
99 90 100 100 86 81 71 84 100 100 100 100 100 100 100 100 100 100 87 10 17 14 34 5 5 0 32 4 0 4 0 5 5 5 29 24 7 19 17 5 54 28 100
100 42 97 100 100 100 100 100 100 100 100 100 100 100 100 100 100 100 100 100 100 99 40 60 5 3 3 5 4 5 9 7 7 46 54 3 36 7 9 5 5 29 100
30 22 45 91 100 100 100 100 100 100 99 99 100 100 100 100 100 100 100 100 100 100 9 5 4 5 5 5 4 30 100 100 80 81 10 33 5 46 9 20 21 28 100
99 7 5 5 41 76 54 100 93 100 100 100 100 100 100 100 100 100 100 100 100 21 5 5 5 5 5 5 3 13 61 100 100 58 20 21 17 65 12 100 82 91 100
1 88 100 90 5 5 5 5 5 5 5 5 37 87 100 100 100 100 100 91 100 19 16 82 80 55 5 5 23 19 100 88 100 100 100 5 5 12 5 100 19 95 100
4 5 6 100 98 50 3 1 0 5 5 5 4 5 12 59 93 26 91 40 91 100 100 98 52 40 65 31 75 22 99 100 99 100 100 30 5 4 29 87 80 100 100
16 51 8 35 90 100 95 26 35 45 8 12 5 5 24 75 12 7 99 44 36 88 66 86 99 50 100 48 98 100 90 100 100 100 100 100 94 12 8 86 99 100 100
0 83 88 74 68 47 38 24 36 29 5 0 0 0 0 0 16 100 11 9 100 81 39 85 100 98 100 100 12 6 100 94 100 100 88 100 100 10 5 19 90 100 100
0 0 6 83 97 59 12 44 14 78 100 61 17 2 0 0 0 14 91 56 16 34 96 100 100 100 100 100 66 62 92 72 100 100 100 98 40 60 5 1 100 98 100

GFSSE_prec_cloud_117.txt.gz
Cloud_Cover
0 0 0 0 0 0 0 0 0 0 0 0 0 0 0 0 0 0 0 0 0 0 0 0 0 0 0 0 0 0 0 0 0 0 1 0 57 91 75 71 52 92 86
0 0 0 0 0 0 0 0 0 0 0 0 0 0 0 0 0 0 0 0 0 0 0 0 0 0 0 0 0 0 0 0 0 0 0 9 87 83 85 5 92 19 5
0 0 0 0 0 0 0 0 0 0 0 0 0 0 0 0 0 0 0 0 0 0 0 0 2 0 0 0 0 0 0 0 0 0 0 56 71 72 19 35 44 6 5
0 0 0 0 0 0 0 0 0 0 0 0 0 0 0 0 0 0 0 0 0 0 0 0 0 2 5 0 4 0 0 0 0 0 0 57 94 55 49 100 100 48 5
0 0 0 0 0 0 0 0 0 0 0 0 0 0 0 0 0 0 0 0 0 0 0 0 0 0 5 5 5 5 5 0 0 8 3 63 100 100 100 100 100 81 5
0 0 0 0 0 0 0 0 0 0 0 0 0 0 0 0 0 0 0 0 0 0 0 0 0 0 0 4 8 5 5 0 0 0 0 5 91 100 100 100 100 100 30
0 0 0 0 1 0 0 0 0 0 0 0 0 0 0 0 0 0 0 0 0 0 0 0 0 0 1 0 0 0 0 0 0 3 0 15 100 100 100 100 100 100 69
1 81 43 13 0 3 4 0 5 0 0 0 0 0 0 0 0 0 0 0 0 0 0 0 0 0 0 5 5 5 5 0 1 0 0 100 100 100 100 100 100 100 100
100 99 34 95 100 48 0 5 18 0 0 0 0 0 0 0 0 0 0 0 0 0 0 0 0 0 0 1 4 5 5 0 0 0 0 98 100 100 100 100 100 100 100
100 100 91 6 60 22 2 1 5 14 0 0 15 4 5 0 0 0 0 0 0 0 0 0 0 0 0 0 0 0 0 0 0 0 0 58 100 100 100 100 100 100 97
70 100 96 43 100 100 100 8 13 76 25 12 89 90 90 20 6 0 0 0 0 0 0 0 0 0 0 0 0 0 0 9 0 0 13 5 95 100 100 100 100 100 100
96 10 100 100 100 100 69 25 13 100 100 100 100 100 70 21 15 0 0 0 2 0 0 0 0 0 8 10 21 10 31 1 0 0 0 0 0 39 70 52 100 98 99
100 48 8 100 98 76 100 100 100 98 81 100 100 70 100 54 98 3 0 0 7 0 20 22 33 31 13 1 0 32 18 0 0 2 2 2 2 5 54 96 100 76 58
60 32 100 100 100 100 96 100 100 100 100 100 100 91 19 100 97 33 0 3 1 10 10 16 38 22 0 0 0 0 0 0 4 16 7 100 100 91 92 100 100 92 88
12 25 32 100 92 100 95 69 100 100 100 100 100 100 100 100 95 98 77 4 2 2 2 5 5 5 2 0 0 0 0 8 22 9 32 78 100 100 96 100 100 100 100
5 70 88 58 100 96 100 36 100 100 100 100 100 100 100 100 100 100 72 69 56 5 5 4 36 5 5 0 0 2 1 0 26 3 27 93 100 69 100 100 100 100 100
73 26 51 100 100 100 69 94 100 100 100 100 100 100 100 100 100 100 100 99 24 29 77 6 21 100 73 5 4 0 5 0 0 0 4 65 30 54 100 100 100 100 100
95 87 58 45 60 100 99 8 100 100 100 100 100 100 100 100 93 95 100 51 20 33 5 5 40 100 11 5 0 0 2 1 0 0 2 25 27 22 15 5 98 100 98
5 88 100 8 66 100 98 55 3 68 100 100 100 100 100 96 99 100 23 5 5 3 5 41 91 100 100 13 3 5 0 5 0 0 0 72 10 20 26 5 5 6 5
5 52 38 15 6 81 39 100 89 41 11 26 68 100 100 98 100 99 100 100 50 42 89 96 55 35 100 15 5 1 5 2 0 1 4 76 98 11 8 57 5 21 42
4 6 0 5 5 5 5 5 12 78 100 100 96 100 100 100 100 100 54 100 100 100 100 100 77 83 81 45 5 55 21 13 0 4 5 5 43 100 6 27 26 29 48
1 1 0 0 0 2 5 2 2 5 28 5 26 42 62 36 16 74 100 96 100 92 100 100 100 100 100 53 7 5 16 72 5 5 27 8 40 100 35 8 40 32 24
0 0 0 0 0 2 0 0 0 3 57 79 21 5 2 2 5 4 4 10 64 99 100 100 100 100 100 85 50 45 54 66 23 20 14 7 21 92 99 6 36 35 20
0 0 0 0 0 0 0 2 1 0 0 5 5 5 0 0 0 0 0 22 5 13 100 100 100 100 98 100 93 87 16 5 0 5 11 51 94 80 100 100 34 39 28
0 0 0 0 0 0 0 0 0 5 5 5 5 18 34 5 4 5 5 0 0 0 2 44 100 100 100 100 99 65 9 14 15 4 30 40 100 54 19 86 15 56 42
5 0 0 0 0 0 0 0 0 0 27 48 14 9 5 4 3 5 5 0 0 0 0 0 6 92 100 48 27 90 15 38 98 47 5 5 86 53 57 100 60 88 55

GFSSE_prec_cloud_123.txt.gz
Cloud_Cover
21 1 0 0 0 0 0 0 0 0 0 0 0 0 0 0 0 0 0 0 0 0 0 0 8 2 0 0 0 0 0 0 0 0 0 0 0 3 4 0 0 4 5
0 22 1 0 0 0 0 0 0 0 0 0 0 0 0 0 0 0 0 0 0 0 0 1 1 0 0 0 4 5 0 2 4 0 0 0 6 6 2 2 6 4 87
0 10 4 0 0 0 0 0 0 0 0 0 0 0 0 0 0 0 0 0 0 0 4 4 0 0 0 0 0 0 0 0 0 0 0 0 0 1 96 100 100 100 100
0 4 12 0 0 0 0 0 0 0 0 0 0 0 0 0 0 0 0 0 0 0 0 0 0 0 0 0 0 0 0 0 0 0 0 0 1 12 100 100 100 100 100
0 0 5 1 0 0 0 0 0 0 0 0 0 0 0 0 0 0 0 0 0 0 0 0 2 1 0 0 0 0 0 0 0 0 0 1 2 99 100 63 100 100 100
0 0 0 1 5 0 0 0 0 2 0 0 0 0 0 0 0 0 0 0 0 0 0 0 0 0 0 0 0 0 0 0 0 0 0 0 0 79 100 100 100 100 100
0 0 0 4 4 1 4 0 0 53 6 12 26 4 0 0 0 0 0 1 0 0 0 0 0 0 0 0 0 0 0 0 0 0 0 0 0 0 69 100 100 100 98
8 8 1 4 5 4 0 2 5 4 5 100 98 4 0 0 0 0 0 2 4 0 0 0 0 0 0 0 0 0 0 0 0 0 0 0 0 0 11 100 100 100 100
99 7 7 49 90 9 44 79 27 5 5 5 1 5 2 0 1 5 2 66 96 27 1 0 4 0 0 0 0 0 0 0 0 0 0 0 0 4 5 100 100 95 66
99 100 100 70 46 30 57 46 22 16 3 5 7 100 7 1 83 100 100 86 100 24 85 6 37 0 0 0 0 0 8 4 4 1 0 4 0 1 5 100 100 100 54
3 1 6 14 20 22 27 38 36 21 9 5 25 96 55 44 100 100 100 100 100 100 100 100 100 80 0 5 0 0 1 25 23 21 19 1 0 0 0 16 100 100 100
5 3 15 17 22 18 6 95 93 70 55 37 30 60 70 70 100 100 100 100 100 100 100 100 100 99 22 21 16 10 33 8 20 17 17 0 0 0 0 0 14 100 100
1 5 34 18 20 26 9 41 66 100 100 100 86 71 100 100 100 100 100 100 100 100 100 100 100 100 100 53 34 37 30 16 25 20 0 0 0 0 0 3 0 27 100
4 5 63 27 28 27 22 35 40 77 99 100 100 100 100 100 100 100 100 100 100 100 100 100 100 92 86 36 21 29 28 26 25 22 2 14 0 0 0 0 0 3 24
4 44 56 87 41 35 25 29 31 100 100 100 100 100 100 100 100 100 100 100 100 100 100 100 100 100 100 78 43 19 21 15 90 47 66 77 5 0 0 0 0 9 100
0 15 92 100 100 88 75 72 51 36 100 100 100 91 100 100 100 100 100 100 100 100 100 100 100 100 100 100 89 41 62 56 10 60 75 98 64 5 0 0 0 19 100
4 0 49 4 0 11 26 8 9 79 100 100 100 100 100 100 100 100 100 100 100 100 100 100 100 97 100 100 100 100 100 100 100 61 60 29 93 96 6 0 0 0 46
0 4 0 3 2 1 9 5 5 0 22 67 99 100 100 100 100 100 100 100 100 100 100 100 100 100 100 100 100 100 100 100 99 21 96 36 100 100 51 3 0 0 0
0 0 2 1 1 0 0 4 0 0 0 6 98 76 100 100 100 100 100 100 100 100 100 100 100 100 100 100 100 100 100 100 97 39 12 55 11 95 100 77 4 0 3
4 5 0 0 0 0 0 0 0 0 0 0 2 26 13 5 100 100 100 100 100 100 100 100 100 100 100 100 100 100 100 100 100 100 73 100 24 6 72 100 57 6 0
3 0 4 2 0 0 0 0 0 0 0 0 0 0 0 76 100 100 100 100 100 100 100 100 100 100 100 100 100 100 100 100 100 100 100 100 35 100 12 14 100 18 17
32 2 0 0 0 0 44 4 0 0 0 0 0 0 0 1 47 100 100 100 100 100 100 100 100 100 100 100 100 100 100 100 100 100 100 100 91 100 50 9 84 96 93
99 29 5 5 14 23 0 76 47 3 0 1 0 0 0 0 5 93 100 100 100 100 100 100 100 100 100 100 100 100 100 100 100 100 100 100 100 100 100 90 10 92 89
98 89 100 98 69 87 4 5 81 100 92 17 5 4 2 0 0 5 100 100 100 100 100 100 100 100 100 100 100 100 100 100 100 100 100 100 100 100 98 69 100 83 100
100 100 100 93 96 100 98 51 26 74 100 100 97 14 5 4 1 0 6 97 100 100 99 98 100 26 100 100 100 100 100 100 100 100 100 100 100 100 100 100 100 100 100
100 100 100 100 99 91 44 5 9 5 7 60 87 99 67 56 5 0 0 1 1 36 74 98 100 97 100 100 100 100 100 100 100 100 100 100 100 100 100 100 100 100 100

GFSSE_prec_cloud_129.txt.gz
Cloud_Cover
0 0 0 0 0 0 0 0 0 0 0 0 0 0 0 0 0 0 0 0 0 0 2 1 0 0 0 0 0 0 0 0 0 0 0 0 3 7 3 0 0 5 3
0 0 12 0 0 0 0 0 0 0 0 0 0 0 0 0 0 0 0 0 0 0 41 3 0 0 0 0 0 0 0 0 0 0 0 3 15 73 1 0 0 14 27
0 0 0 0 0 0 0 0 0 0 0 0 0 0 0 0 0 0 0 0 0 0 0 4 4 0 0 0 0 0 0 0 0 0 0 0 9 68 26 5 5 5 24
0 0 0 10 0 0 0 2 0 0 0 0 0 0 0 0 0 0 0 0 0 0 3 19 0 1 0 0 0 0 0 0 0 0 0 1 2 3 4 5 5 5 99
0 0 0 2 0 0 0 34 20 4 5 5 5 1 0 0 0 0 0 0 0 0 20 4 4 0 0 0 0 0 0 0 0 0 0 2 23 14 24 47 16 5 88
0 0 37 0 0 3 4 0 0 0 0 3 5 4 11 0 0 0 0 0 0 0 0 0 0 0 0 0 0 0 0 0 0 0 0 0 2 1 0 6 5 5 5
0 0 0 0 0 1 10 75 61 87 36 71 9 5 5 18 13 1 1 5 1 0 0 0 0 5 0 0 2 7 0 0 0 0 0 0 0 0 0 0 3 5 5
0 0 0 5 0 2 0 3 5 5 5 12 76 73 5 5 8 5 4 4 5 0 0 0 0 4 40 4 5 100 7 0 0 0 0 0 0 0 0 0 0 5 5
0 0 0 2 0 14 2 4 1 2 2 0 2 2 5 16 6 5 5 5 5 0 0 0 5 7 100 45 96 100 100 9 5 5 2 0 0 0 0 0 4 6 13
0 4 4 2 5 2 5 24 1 0 0 0 5 3 2 6 5 5 28 6 5 1 2 0 5 27 58 49 100 100 100 100 13 12 5 5 2 0 0 0 0 5 4
4 10 65 5 0 1 4 5 49 16 1 12 16 9 68 72 22 6 38 96 87 39 12 27 11 100 5 70 48 100 100 100 100 78 96 100 5 5 0 4 0 4 4
61 72 7 5 24 25 4 13 25 34 50 25 43 54 59 43 18 100 75 66 100 100 67 82 34 100 48 23 32 71 100 95 100 100 100 100 76 12 4 0 3 0 1
100 100 96 100 100 91 88 11 39 100 100 100 100 84 83 100 97 43 44 100 100 100 44 93 81 98 47 100 14 26 56 100 100 100 100 100 99 40 14 5 5 10 0
67 86 100 100 100 100 100 58 91 100 100 100 100 100 100 97 100 100 100 100 100 100 99 92 88 96 76 92 73 82 98 98 100 100 100 100 93 5 5 5 8 100 5
51 97 100 100 100 100 100 85 90 95 100 100 100 100 100 100 87 100 100 100 100 99 100 100 100 100 98 100 100 76 96 100 100 100 100 100 98 10 5 5 45 100 16
87 100 100 100 100 100 100 100 100 100 99 100 100 100 100 100 100 94 100 100 100 100 100 100 100 100 100 100 100 100 100 100 100 100 100 100 100 100 90 84 33 41 15
100 100 100 100 100 100 100 100 100 100 100 100 100 100 100 100 82 69 100 100 100 100 100 100 100 100 100 100 100 100 100 100 100 100 100 100 100 100 100 5 98 22 8
100 100 34 38 80 100 100 99 100 23 77 100 100 100 100 100 100 100 98 100 100 100 100 100 100 100 100 100 100 100 100 100 100 100 100 100 100 100 100 68 82 100 5
100 78 98 100 96 65 33 23 18 5 1 0 0 0 0 2 13 31 97 86 99 88 100 100 100 100 100 100 100 100 100 100 100 100 100 100 60 100 95 100 94 100 69
100 100 100 100 75 28 4 9 0 0 0 0 0 0 0 0 0 4 8 70 99 100 99 80 100 100 100 100 100 100 100 100 100 100 100 100 100 100 100 100 100 100 100
32 74 15 5 5 2 0 4 4 0 0 0 0 0 0 0 0 0 0 0 61 88 100 87 100 100 100 100 100 100 100 100 100 100 100 100 100 100 100 100 100 100 100
77 58 27 6 5 5 5 4 5 5 0 1 0 0 0 0 0 0 0 0 6 16 71 81 100 100 100 100 100 100 99 100 100 100 100 100 100 100 100 100 100 100 100
55 22 25 14 3 2 12 82 44 5 2 1 0 2 0 0 0 0 0 4 2 4 6 98 90 100 100 100 100 100 100 100 96 100 100 98 100 100 100 100 100 99 100
99 98 100 98 96 84 38 9 5 14 11 94 25 35 33 8 26 36 35 18 28 26 10 41 91 100 100 100 91 100 100 100 100 100 100 100 100 100 100 100 100 100 100
82 67 5 21 93 100 97 99 28 5 14 88 99 70 66 100 79 69 100 100 98 58 59 75 53 98 56 100 100 100 100 100 100 100 100 100 100 100 100 100 98 100 100
4 4 16 24 44 84 61 54 39 57 65 53 65 70 100 59 85 98 100 100 100 100 100 100 100 100 100 94 86 100 100 100 100 100 100 100 100 100 100 100 99 100 100

GFSSE_prec_cloud_132.txt.gz
Cloud_Cover
0 0 0 0 0 0 0 0 0 0 0 0 0 0 0 0 0 0 0 0 0 0 0 0 0 0 0 0 0 0 0 0 0 0 0 4 6 7 3 0 0 31 5
0 0 24 0 0 0 0 0 0 0 0 0 0 0 0 0 0 0 0 0 0 0 0 0 0 0 0 0 0 0 0 0 0 0 0 0 45 12 3 0 1 18 68
0 0 2 0 0 0 0 0 0 0 0 0 0 0 0 0 0 0 0 0 0 1 0 0 0 0 0 0 0 0 0 0 0 0 0 50 14 92 5 5 5 14 5
0 0 0 12 0 0 0 0 0 0 1 0 0 0 0 0 0 0 0 0 0 0 0 3 0 0 0 0 0 0 0 0 0 0 30 96 82 2 6 41 75 22 5
1 0 1 0 0 0 3 4 5 4 2 4 0 0 0 0 0 0 0 0 0 0 0 28 1 0 0 0 0 0 0 0 0 6 80 92 100 21 0 5 58 19 5
5 5 43 0 0 0 0 0 4 5 3 2 0 0 0 0 0 0 0 0 0 0 0 33 0 0 0 0 0 0 0 4 31 15 42 18 77 2 0 1 9 5 7
5 1 5 1 0 0 0 3 3 2 12 9 12 2 0 1 1 0 2 0 3 4 0 1 0 0 0 0 0 0 0 45 76 26 24 5 29 0 1 3 5 11 5
42 52 4 12 0 0 2 0 0 0 0 3 5 5 3 0 1 3 19 5 19 5 3 0 0 0 0 0 6 5 0 4 100 84 7 15 23 0 0 0 0 1 5
13 5 1 0 1 42 0 0 0 0 0 0 0 1 0 1 5 0 0 5 75 100 8 5 1 0 0 0 5 24 21 8 100 100 93 19 6 5 0 0 0 0 3
4 1 0 0 0 0 1 8 1 0 0 0 0 0 0 2 5 43 6 15 5 66 99 100 34 5 3 59 66 48 100 95 91 100 100 74 100 48 5 1 0 0 0
5 5 5 0 0 0 0 3 53 30 2 12 24 8 67 0 0 5 5 5 5 73 4 14 71 99 56 72 100 8 83 30 53 76 100 100 100 100 40 5 0 0 0
93 69 5 5 5 5 5 6 8 6 21 14 9 5 14 0 7 20 0 3 5 100 100 84 100 100 100 98 100 47 99 51 6 97 100 100 100 100 92 5 5 52 15
100 79 100 97 15 6 5 3 5 46 91 91 80 66 45 37 36 32 51 28 15 37 62 99 100 100 100 100 100 100 100 95 83 99 100 100 100 100 100 5 5 39 100
100 100 100 100 100 94 100 98 97 100 100 100 86 100 89 98 100 21 58 97 100 90 63 83 100 100 100 100 100 100 96 100 90 100 100 100 100 100 100 5 5 99 100
100 100 100 100 100 100 100 100 100 100 100 100 100 100 100 100 60 100 100 74 100 100 100 100 97 96 100 100 100 100 100 97 63 100 100 100 100 100 100 6 5 61 100
100 100 100 100 100 100 100 100 100 100 100 100 100 100 100 100 100 99 98 44 82 100 100 100 100 100 100 100 100 100 100 100 100 98 100 100 100 100 100 43 8 8 26
31 23 100 100 100 100 100 100 100 100 100 100 100 100 100 100 100 100 98 100 100 99 96 72 100 100 100 100 100 100 100 100 100 100 98 100 100 100 100 100 15 5 98
44 8 74 86 100 100 100 100 100 100 100 100 100 100 100 100 100 100 100 91 98 100 100 100 100 100 100 100 100 100 100 100 100 88 100 100 100 100 100 100 100 17 62
100 100 100 100 100 100 100 100 100 100 100 100 61 35 33 35 32 58 63 91 100 100 93 100 100 100 100 100 100 100 100 100 100 100 99 100 100 94 100 100 93 97 100
100 100 100 100 100 100 100 100 100 100 100 97 100 100 74 12 5 4 0 1 8 57 96 100 100 100 97 98 78 98 100 100 100 100 100 92 100 100 100 97 100 100 100
100 100 72 58 100 96 100 100 100 100 55 62 10 5 5 5 18 5 2 0 0 2 82 99 100 100 100 100 100 91 100 64 100 100 100 100 99 100 100 100 100 100 100
100 100 100 100 100 98 46 8 12 5 5 5 5 5 5 4 4 6 8 4 0 0 0 11 92 100 100 100 100 100 100 100 100 100 100 100 100 100 100 100 100 100 100
100 100 100 100 100 100 100 100 98 89 65 22 46 81 5 4 0 1 2 0 0 0 0 0 1 31 100 100 100 100 100 100 100 100 100 100 100 100 100 100 100 100 100
53 71 45 64 100 100 78 33 55 30 21 5 5 5 9 7 17 79 90 51 6 2 0 0 0 2 67 98 96 96 100 100 100 100 100 100 100 100 100 100 97 100 100
5 3 3 2 2 1 1 5 5 5 5 5 5 5 5 5 5 5 48 98 90 79 95 95 63 31 32 8 25 99 100 91 100 93 100 100 100 100 100 100 100 100 100
2 0 0 0 0 0 0 1 18 16 8 5 13 5 3 3 4 15 65 100 100 100 100 100 100 100 100 92 36 42 72 100 100 100 100 100 100 100 100 100 100 100 100

GFSSE_prec_cloud_138.txt.gz
Cloud_Cover
2 0 0 0 0 0 0 0 0 0 0 0 0 0 0 0 0 0 0 0 0 0 0 0 0 0 0 0 0 0 0 0 0 0 0 0 0 0 0 0 28 2 2
0 0 8 0 0 1 0 0 0 0 0 0 0 0 0 0 0 0 0 0 0 0 0 0 0 0 0 0 0 0 0 0 0 0 0 0 0 0 0 0 0 1 5
0 0 0 0 0 5 5 0 0 0 0 0 0 0 0 0 0 0 0 0 0 0 0 0 0 0 0 0 0 0 0 0 0 0 0 0 1 100 44 0 0 2 5
0 0 0 0 5 5 98 2 0 0 0 0 0 0 0 0 0 0 0 0 0 0 0 0 0 0 0 0 0 0 0 0 0 0 0 0 100 100 100 65 0 5 4
2 1 0 0 2 55 100 32 5 4 2 0 0 0 0 0 0 0 0 0 0 0 0 0 0 0 0 0 0 0 0 0 0 0 2 14 99 100 100 94 2 3 5
6 1 22 0 2 28 68 88 91 26 5 5 5 0 0 0 0 5 5 5 5 4 5 7 0 0 0 0 0 0 0 0 0 2 47 100 30 78 50 2 4 1 5
6 4 0 4 2 25 81 99 95 100 100 62 5 2 0 0 0 0 0 2 43 87 37 5 2 0 0 4 4 0 0 2 4 1 100 100 97 5 5 1 4 5 4
5 1 1 4 0 1 35 84 74 100 100 100 37 5 1 1 0 0 0 0 0 0 0 0 0 2 0 0 1 4 5 9 3 5 96 93 11 30 100 6 14 94 2
0 0 0 0 0 17 100 100 100 100 73 100 55 35 5 0 0 0 0 0 0 0 0 0 0 0 4 5 5 0 5 6 5 5 13 85 20 97 100 8 13 100 38
4 0 0 1 0 2 5 13 35 67 96 86 99 61 24 5 3 0 0 0 0 0 0 0 0 2 0 0 2 1 5 5 6 5 3 56 57 8 58 5 15 100 12
3 4 30 0 50 27 5 38 61 88 71 45 80 63 38 3 0 0 0 0 0 0 1 10 4 2 0 0 2 5 3 76 100 100 86 51 74 54 5 44 54 53 100
5 5 5 4 4 24 22 64 5 15 83 100 35 5 11 1 0 3 0 0 1 27 36 29 98 88 44 4 3 5 91 86 88 81 100 100 92 79 24 99 96 69 100
6 1 4 0 0 4 4 6 26 99 100 100 100 100 100 100 99 98 70 100 100 100 100 100 100 92 98 12 22 78 91 34 11 12 67 100 100 100 76 100 100 100 100
0 4 4 2 2 1 28 3 75 61 17 60 96 99 78 52 25 18 57 97 100 100 100 100 100 94 96 84 72 100 100 100 82 76 99 100 100 100 80 100 100 100 94
0 4 3 3 5 5 5 31 59 98 92 100 78 90 100 100 68 83 44 28 93 100 100 100 100 99 100 100 100 100 100 100 100 100 83 92 100 100 100 96 100 100 100
5 5 49 56 36 6 85 48 32 62 95 95 100 100 100 89 100 100 90 59 54 96 99 100 97 100 100 100 100 100 100 100 100 100 100 100 100 100 100 100 100 100 100
5 45 84 100 100 100 97 70 100 73 100 100 100 100 50 56 100 100 100 30 100 100 89 64 92 100 100 100 100 100 100 100 100 100 100 100 100 100 100 100 96 100 100
83 100 100 52 9 21 37 56 68 90 100 100 100 100 100 100 100 100 100 100 100 14 5 8 77 100 100 100 100 100 100 100 100 100 100 100 100 100 90 100 97 100 100
1 5 5 4 5 5 9 5 8 48 69 100 100 100 100 100 100 98 88 99 44 0 24 38 68 92 100 100 100 100 100 100 100 100 100 100 100 100 100 100 100 100 100
0 3 5 5 5 14 5 43 3 5 98 92 94 100 100 100 100 100 100 90 25 5 0 0 4 28 100 100 100 100 100 100 100 100 100 100 100 100 100 100 89 100 100
2 0 5 5 5 5 5 5 5 5 11 43 99 100 100 100 100 100 100 100 100 100 100 18 0 3 100 100 100 100 100 100 100 100 100 100 100 100 100 100 100 100 100
1 0 0 5 5 31 92 99 93 91 76 30 19 45 100 100 100 100 100 94 95 100 100 56 4 0 96 100 100 100 100 100 100 100 100 100 100 100 100 100 100 100 100
4 5 4 4 2 4 58 100 100 93 94 45 48 9 5 1 1 27 55 98 100 98 76 31 4 0 12 98 100 100 100 100 100 100 100 100 100 100 100 100 100 100 100
6 14 5 7 22 88 13 5 6 22 67 100 100 100 86 44 24 3 0 0 0 7 21 16 37 35 35 41 100 100 100 100 100 100 100 100 100 100 100 100 100 100 100
5 5 14 20 5 5 6 5 5 5 4 0 0 1 0 0 1 5 0 1 6 90 93 86 98 100 100 100 77 99 100 81 57 94 93 8 98 100 100 100 100 100 99
0 0 5 5 5 5 0 0 0 0 0 0 1 5 5 5 5 7 75 100 100 100 100 100 100 100 100 100 100 100 100 91 53 43 35 5 5 56 100 66 100 100 37

GFSSE_prec_cloud_141.txt.gz
Cloud_Cover
98 18 5 4 0 0 0 0 0 0 0 0 0 0 0 0 0 0 0 0 0 0 0 0 0 0 0 0 0 0 0 0 0 0 0 0 0 0 7 25 4 1 1
4 8 4 0 0 0 0 0 0 0 0 0 0 0 0 0 0 0 0 0 0 0 0 0 0 0 0 0 0 0 0 0 0 0 0 0 0 0 14 100 6 1 5
58 6 1 0 0 0 0 0 0 2 0 0 0 0 0 0 0 0 0 0 0 0 0 0 0 0 0 0 0 0 0 0 0 0 0 0 0 33 95 88 90 5 5
40 5 0 0 0 4 0 0 0 5 4 0 0 0 0 0 0 0 0 0 0 0 0 0 0 0 0 0 0 0 0 0 0 0 0 0 0 70 100 98 100 18 4
0 4 1 0 0 5 2 1 5 5 5 5 28 5 5 2 0 0 0 0 0 0 0 0 0 0 1 0 0 0 0 0 0 0 26 1 85 100 100 61 97 9 3
0 0 0 0 0 5 10 6 5 5 5 5 20 11 5 5 4 0 0 0 0 0 0 0 0 0 0 0 0 0 0 0 3 0 0 0 64 100 100 100 96 100 3
0 0 0 3 5 17 4 4 5 1 1 1 94 93 99 7 0 0 0 0 0 0 0 0 2 0 0 0 0 4 5 3 1 0 4 3 58 100 100 100 73 98 48
0 5 4 5 36 3 0 0 1 4 7 78 100 100 100 30 3 0 0 0 0 0 0 0 0 0 0 0 1 4 5 5 8 1 8 64 1 46 100 99 100 56 5
18 10 7 2 0 1 0 1 4 55 100 99 64 44 68 100 7 5 0 1 0 0 0 0 0 0 0 0 0 1 4 5 5 5 3 0 2 5 14 4 30 3 4
100 100 44 78 78 55 1 0 5 5 0 3 38 100 99 13 100 97 17 1 0 0 0 6 3 5 3 5 48 5 0 0 0 6 5 2 4 8 19 5 14 5 5
18 89 97 60 5 43 78 67 6 24 56 100 100 100 100 100 100 100 44 4 6 47 92 100 99 90 42 100 56 76 5 19 31 100 100 100 100 74 7 5 5 64 14
0 0 2 2 2 2 3 52 100 3 50 100 100 100 100 100 100 100 100 96 68 100 100 100 100 100 100 99 94 100 100 100 90 35 93 95 96 87 78 68 100 77 84
4 5 5 0 0 0 0 49 88 100 62 100 100 100 100 100 100 100 100 5 85 100 100 100 100 100 100 100 100 100 100 100 100 100 100 100 100 100 75 100 100 87 89
5 3 3 0 2 0 1 12 93 81 100 100 100 100 100 100 100 100 100 85 97 92 75 95 100 77 100 100 100 100 99 100 100 100 100 100 100 100 100 100 100 100 100
2 0 0 0 0 1 0 2 6 93 94 87 72 100 100 59 94 100 63 24 44 37 49 85 95 100 100 100 100 100 100 100 100 100 100 100 100 100 100 100 100 100 100
2 0 2 0 4 5 5 5 29 87 24 100 100 50 2 56 89 35 79 100 100 36 24 100 34 83 100 100 100 100 100 100 100 100 100 100 100 100 100 100 100 100 98
5 5 4 0 0 4 5 33 81 72 12 20 34 30 64 22 84 8 99 100 100 82 100 100 49 73 71 40 100 100 100 100 100 100 100 100 100 100 100 100 100 100 94
5 1 0 2 0 0 0 0 0 0 0 0 0 1 4 3 84 95 100 96 100 100 98 6 1 58 98 100 100 100 100 100 100 100 100 100 100 100 100 100 100 99 100
1 5 5 5 4 4 0 0 0 0 0 1 0 0 0 3 32 21 32 92 94 39 4 3 0 2 16 86 100 100 100 100 100 100 100 100 100 100 100 100 100 100 100
52 78 5 3 2 5 1 0 0 0 0 8 4 5 5 5 5 5 8 35 72 100 94 27 5 2 1 5 94 100 100 100 100 100 100 100 100 100 100 100 100 100 100
95 40 17 5 5 5 5 4 0 0 0 5 46 100 100 99 92 43 54 60 99 66 100 100 94 20 0 0 96 100 100 100 100 100 100 100 100 100 100 100 100 100 100
100 100 51 31 41 34 5 4 2 0 0 0 0 0 15 90 100 100 100 100 59 30 5 28 97 100 100 6 5 91 100 100 100 100 100 100 100 100 100 100 100 100 100
23 96 100 100 71 98 87 90 10 5 2 0 0 0 0 3 4 30 94 100 100 100 93 6 5 5 57 16 5 40 99 100 100 100 100 100 100 100 100 100 100 100 100
7 5 12 9 5 5 5 7 8 5 3 0 0 0 0 0 0 3 7 62 100 90 85 94 94 95 92 28 26 34 90 79 100 100 100 100 100 100 100 100 100 100 100
2 0 5 1 0 4 0 0 0 0 1 0 1 4 5 5 5 5 5 5 90 100 100 100 100 100 100 100 100 100 36 22 99 94 100 100 100 100 100 100 100 100 100
0 1 0 0 0 0 0 0 0 1 2 8 89 100 97 24 5 5 6 74 81 100 100 100 100 100 100 100 100 100 100 100 99 100 99 100 100 100 100 16 89 93 96

GFSSE_prec_cloud_147.txt.gz
Cloud_Cover
9 33 5 37 99 92 5 0 0 0 0 0 0 0 0 0 0 0 0 0 0 0 1 0 0 0 0 0 0 0 0 0 0 0 0 2 1 4 0 0 0 0 0
0 6 25 95 100 22 5 0 0 0 0 0 0 0 0 0 0 0 0 0 0 0 0 0 0 0 0 0 0 0 0 0 0 0 0 0 2 0 0 2 0 3 2
1 5 47 90 81 5 5 1 0 0 0 0 0 0 0 0 0 0 0 0 1 0 0 0 0 0 0 0 0 0 0 0 0 0 0 0 0 0 4 70 18 43 5
5 5 81 94 5 23 5 0 0 0 0 0 0 0 1 4 2 0 0 0 0 4 0 0 0 0 0 0 0 0 0 0 0 0 0 0 0 0 8 100 100 16 99
10 94 74 98 90 97 0 0 0 0 1 4 5 5 5 5 0 0 2 5 28 5 4 0 0 0 0 0 0 0 0 0 0 0 0 0 0 0 1 4 8 99 97
0 10 75 69 6 5 0 0 0 4 5 4 2 1 0 0 0 0 1 7 100 100 99 31 3 0 0 0 0 0 0 0 0 0 0 0 0 0 0 4 23 80 100
32 5 5 6 94 88 0 0 2 0 5 5 5 4 0 0 0 0 0 2 27 100 100 64 5 0 0 0 0 0 0 0 0 0 0 0 0 3 20 65 94 98 57
17 7 9 5 4 0 0 0 7 5 93 5 2 3 3 0 0 0 0 0 0 5 8 37 95 66 2 0 0 0 0 0 0 5 1 0 1 5 42 65 6 38 8
2 0 10 15 24 24 11 0 0 0 5 6 5 5 5 4 2 4 1 11 78 100 99 89 33 58 7 30 5 5 5 14 54 100 99 100 99 100 92 24 100 45 42
100 99 98 97 30 40 94 92 23 31 65 59 56 41 21 83 89 70 87 63 91 100 99 100 100 100 95 100 100 100 100 100 100 100 100 100 100 100 100 97 46 70 46
0 0 4 5 6 45 98 100 98 100 100 100 78 92 78 39 30 35 100 51 78 95 82 99 100 99 100 100 100 100 100 100 100 100 100 100 100 100 100 100 100 100 92
0 0 0 5 5 6 46 100 100 100 89 6 36 85 100 100 87 95 96 89 100 100 98 96 78 40 99 100 100 100 100 100 100 100 100 100 100 100 100 85 100 100 100
5 4 0 0 0 5 7 68 100 100 63 8 14 27 100 100 100 100 100 100 100 100 70 74 97 85 98 100 100 100 100 100 100 100 100 100 100 100 100 100 100 100 100
96 97 70 60 6 65 19 8 71 82 6 21 79 100 100 100 100 100 100 96 62 87 97 99 46 91 41 100 66 100 100 100 100 100 100 100 100 100 66 100 100 100 100
4 2 3 28 91 5 3 5 33 49 19 42 100 64 100 100 100 99 45 1 2 4 8 50 100 100 94 83 100 59 100 100 100 100 100 100 100 100 100 100 100 100 100
0 0 0 6 5 4 8 5 5 5 6 4 10 54 99 90 100 100 71 2 0 1 5 5 22 92 99 100 96 100 82 100 100 100 100 100 100 100 100 100 100 100 100
1 0 3 0 0 0 0 0 0 0 0 1 0 0 0 0 0 0 0 0 0 0 0 0 2 0 1 8 92 87 91 96 100 100 100 100 100 100 100 100 100 100 100
4 0 0 0 0 0 0 0 0 0 0 0 0 0 0 3 0 0 0 0 0 0 0 0 0 0 0 4 5 26 47 100 100 100 100 100 100 100 100 100 100 100 100
56 39 5 0 4 0 5 36 30 16 19 5 5 4 2 7 4 2 0 0 0 0 0 0 0 0 0 5 1 5 80 95 100 100 100 100 100 100 100 100 100 100 100
100 100 100 96 71 11 8 16 75 100 100 98 100 99 88 12 5 5 5 0 0 0 1 0 0 1 38 0 0 2 5 21 98 100 100 100 100 100 100 100 100 100 100
100 100 100 97 100 45 2 3 0 5 100 100 100 100 99 20 5 0 0 0 0 0 0 0 0 0 0 4 16 0 0 0 4 95 100 98 100 100 100 100 100 100 100
100 51 47 4 17 16 4 0 0 1 8 100 100 86 56 38 48 8 2 0 0 0 0 0 0 0 0 0 22 80 57 4 0 0 29 43 92 100 100 100 100 100 100
30 4 2 4 5 5 0 3 11 42 55 10 25 81 86 90 5 3 5 5 5 5 5 5 5 5 18 2 30 77 66 51 61 0 0 4 5 52 92 100 100 100 100
5 5 5 5 5 5 5 5 92 16 15 9 5 5 5 5 5 5 5 5 5 5 5 5 5 5 23 59 21 100 98 93 98 56 0 0 0 5 5 68 99 100 100
16 5 5 9 97 89 100 100 73 6 94 5 5 5 5 5 5 5 5 5 5 5 7 6 20 8 11 51 100 100 47 47 98 100 85 2 0 0 2 5 6 94 76
52 28 13 89 94 94 100 66 5 5 6 70 53 5 5 5 5 5 5 5 5 5 22 70 99 74 8 7 89 100 100 100 100 100 100 100 98 4 1 0 5 2 47